Location: Newark
(44.2003°N, 3.2583°E)
Time: 07:32:00
(UTC+00:00)

Explorer 7 - Pass Details

Date: 21 October 2019
Orbit: 485 x 680 km, 50.3° (Epoch: 17 November)

Event Time Altitude Azimuth Distance (km) Brightness Sun altitude
Rises 13:24:26 0° 283° (WNW) 2,548 10.5 29.4°
Reaches altitude 10° 13:26:45 10° 294° (WNW) 1,674 9.5 29.2°
Maximum altitude 13:30:10 32° 359° (N) 875 7.7 28.9°
Drops below altitude 10° 13:33:41 10° 64° (ENE) 1,721 9.0 28.5°
Sets 13:36:06 0° 74° (ENE) 2,635 9.9 28.3°
